[[{"header":{"parameterUnit":"m.s-1","parameterCategory":1,"la1":30.2992,"la2":30.254,"lo1":-89.0895,"lo2":-89.0443,"dy":0.0025,"dx":0.0025,"nx":19,"ny":19,"refTime":"2026-04-24T03:00:00:Z","depth":0,"parameterNumber":2,"parameterNumberName":"U-component_of_WINDS"},"data":[0,0,0,-1.8556,-1.8557,-1.8614,-1.8614,-1.869,-1.8691,0,0,0,0,0,0,0,0,0,0,0,-1.8539,-1.8539,-1.8556,-1.8557,-1.8614,-1.8615,-1.869,-1.8691,0,0,0,0,0,0,0,0,0,0,0,-1.8539,-1.8539,-1.854,-1.8558,-1.8614,-1.8615,-1.869,-1.8646,0,0,0,0,0,0,0,0,0,0,-1.8591,-1.8574,-1.8539,-1.854,-1.8558,-1.8614,-1.8615,-1.8644,-1.8649,-1.8665,0,-1.8677,0,-1.8685,-1.8696,-1.8696,0,0,0,-1.8558,-1.857,-1.8585,-1.854,-1.8558,-1.8614,-1.8589,-1.8647,-1.8652,-1.8671,-1.8678,-1.8681,-1.8686,-1.8696,-1.8697,-1.8781,-1.8781,0,0,-1.8555,-1.8549,-1.8582,-1.8589,-1.8578,-1.8587,-1.8591,-1.865,-1.8658,-1.8678,-1.8683,-1.8687,-1.8697,-1.8697,-1.878,-1.8781,0,0,0,-1.8546,-1.8547,-1.8561,-1.8586,-1.8596,-1.8589,-1.8593,-1.8655,-1.866,-1.8683,-1.8688,-1.8697,-1.8698,-1.878,-1.8781,-1.8791,0,0,0,-1.8544,-1.8541,-1.856,-1.8557,-1.8595,-1.8626,-1.8597,-1.8656,-1.8663,-1.8688,-1.8697,-1.8699,-1.878,-1.878,-1.879,-1.8798,0,0,0,-1.8535,-1.8541,-1.8548,-1.8556,-1.858,-1.8625,-1.8633,-1.8658,-1.8666,-1.8696,-1.8699,-1.8779,-1.878,-1.8789,-1.8796,-1.8818,0,0,0,-1.8525,-1.8558,-1.8548,-1.8587,-1.858,-1.8631,-1.8633,-1.8672,-1.8699,-1.8698,-1.878,-1.878,-1.8789,-1.8795,-1.8817,-1.8835,-1.8841,0,0,-1.8564,-1.8562,-1.8586,-1.8579,-1.863,-1.8623,-1.8676,-1.8707,-1.8717,-1.8759,-1.8762,-1.8791,-1.8796,-1.8818,-1.8883,-1.8889,0,0,0,-1.8596,-1.8613,-1.8628,-1.8652,-1.8676,-1.8698,-1.8721,-1.8733,-1.8769,-1.8737,-1.8805,-1.8808,-1.8821,-1.883,-1.8835,-1.8846,-1.8784,-1.8784,-1.8784,-1.8642,-1.8651,-1.869,-1.8706,-1.8731,-1.8755,-1.8776,-1.8796,-1.8799,-1.8815,-1.8827,-1.8866,-1.8876,-1.888,-1.8892,-1.8838,-1.8838,-1.8838,-1.8838,-1.8699,-1.8724,-1.8726,-1.8765,-1.8776,-1.8809,-1.8835,-1.8836,-1.887,-1.8857,-1.8869,-1.8854,-1.8885,-1.8896,-1.8839,-1.8839,-1.8839,-1.8839,-1.8839,-1.8729,-1.8743,-1.8756,-1.8793,-1.8821,-1.8837,-1.8869,-1.8878,-1.8887,-1.8899,-1.8913,-1.8913,-1.8913,-1.8905,-1.8905,-1.8905,-1.8905,-1.8905,-1.8905,-1.8755,-1.877,-1.8795,-1.8823,-1.884,-1.8865,-1.889,-1.8908,-1.8931,-1.8934,-1.8935,-1.8936,-1.8887,-1.8874,-1.8908,-1.8907,-1.8907,-1.8907,-1.8907,-1.8809,-1.8798,-1.8837,-1.8854,-1.8889,-1.8916,-1.8927,-1.8963,-1.898,-1.8996,-1.8995,-1.8957,-1.8957,-1.8954,-1.8943,-1.8993,-1.8993,-1.8993,-1.8993,-1.8835,-1.8835,-1.8877,-1.8904,-1.8932,-1.8945,-1.8991,-1.9012,-1.9032,-1.9043,-1.9037,-1.9024,-1.902,-1.9023,-1.9018,-1.9008,-1.9073,-1.9073,-1.9073,-1.8868,-1.8872,-1.8907,-1.8925,-1.8953,-1.8977,-1.9021,-1.9054,-1.9075,-1.9077,-1.9052,-1.9049,-1.9028,-1.902,-1.9021,-1.9012,-1.8995,0,0]},{"header":{"parameterUnit":"m.s-1","parameterCategory":1,"la1":30.2992,"la2":30.254,"lo1":-89.0895,"lo2":-89.0443,"dy":0.0025,"dx":0.0025,"nx":19,"ny":19,"refTime":"2026-04-24T03:00:00:Z","depth":0,"parameterNumber":3,"parameterNumberName":"V-component_of_WINDS"},"data":[0,0,0,5.0789,5.0789,5.0783,5.0782,5.0794,5.0794,0,0,0,0,0,0,0,0,0,0,0,5.0803,5.0803,5.0789,5.0789,5.0783,5.0782,5.0794,5.0794,0,0,0,0,0,0,0,0,0,0,0,5.0803,5.0803,5.0804,5.0789,5.0783,5.0782,5.0794,5.0792,0,0,0,0,0,0,0,0,0,0,5.0795,5.0819,5.0803,5.0804,5.079,5.0783,5.0782,5.0792,5.0792,5.0806,0,5.082,0,5.0807,5.0796,5.0796,0,0,0,5.0781,5.0818,5.0806,5.0804,5.079,5.0783,5.0783,5.0792,5.0792,5.0807,5.082,5.082,5.0808,5.0797,5.0797,5.09,5.0901,0,0,5.0782,5.0808,5.0806,5.0807,5.0808,5.0784,5.0783,5.0792,5.0808,5.082,5.082,5.0808,5.0797,5.0797,5.0899,5.09,0,0,0,5.0788,5.0809,5.0796,5.0807,5.0804,5.0784,5.0783,5.0808,5.0801,5.082,5.0808,5.0797,5.0797,5.0898,5.09,5.0969,0,0,0,5.0788,5.0812,5.0796,5.0812,5.0804,5.0806,5.08,5.0801,5.0801,5.0808,5.0797,5.0798,5.0897,5.0899,5.0965,5.0997,0,0,0,5.0799,5.0813,5.0816,5.0814,5.0812,5.0805,5.0799,5.08,5.0794,5.0796,5.0798,5.0897,5.0899,5.0961,5.0991,5.1033,0,0,0,5.0819,5.0878,5.0818,5.0879,5.0812,5.0847,5.0798,5.0824,5.0834,5.0797,5.0897,5.09,5.096,5.0987,5.1029,5.1073,5.1093,0,0,5.0908,5.0889,5.0923,5.0869,5.0922,5.0846,5.0909,5.0894,5.087,5.0892,5.0894,5.0966,5.0991,5.1032,5.1198,5.1214,0,0,0,5.096,5.0985,5.0993,5.1003,5.0993,5.0986,5.0958,5.0953,5.0969,5.0886,5.0991,5.1005,5.1028,5.1048,5.1062,5.108,5.091,5.0909,5.0909,5.1124,5.109,5.1144,5.111,5.1121,5.1091,5.1097,5.1085,5.1047,5.1073,5.1079,5.1184,5.1208,5.1218,5.1238,5.1099,5.1099,5.1099,5.11,5.1251,5.1281,5.123,5.1264,5.1229,5.1258,5.1232,5.1205,5.1227,5.1176,5.1195,5.1143,5.1237,5.1253,5.1104,5.1104,5.1103,5.1103,5.1102,5.1356,5.1364,5.1356,5.1368,5.1381,5.1344,5.1368,5.1334,5.1303,5.1322,5.1325,5.1324,5.132,5.1326,5.1326,5.1326,5.1327,5.1327,5.1327,5.1467,5.1456,5.1479,5.1473,5.1476,5.1475,5.1446,5.1448,5.1442,5.1416,5.1416,5.1377,5.1252,5.1222,5.1333,5.1332,5.1331,5.133,5.133,5.1611,5.1573,5.161,5.1612,5.1602,5.1619,5.1575,5.1582,5.1579,5.1592,5.1549,5.1462,5.1441,5.143,5.1405,5.1555,5.1555,5.1555,5.1555,5.17,5.1685,5.1715,5.1722,5.1725,5.1689,5.1733,5.1712,5.1684,5.168,5.1653,5.1617,5.1607,5.1592,5.1577,5.1553,5.1738,5.1738,5.1738,5.1786,5.1771,5.1814,5.1785,5.1775,5.1768,5.1808,5.1819,5.1779,5.1745,5.1677,5.1669,5.161,5.1592,5.1557,5.1535,5.149,0,0]}]]